| time (UTC) | temp F | wind direction | speed MPH | gust MPH | rain 1hr in | rain 24hr in | rain mn in | humidity % | barometer mb |
| 20260906131532 | 58 | 117 | 0.0 | 0.0 | 0.01 | 0.01 | 0.01 | 89 | 1015.4 |
| 20260906130033 | 57 | 117 | 0.0 | 2.0 | 0.01 | 0.01 | 0.01 | 89 | 1015.1 |
| 20260906124530 | 58 | 231 | 0.0 | 2.0 | 0.00 | 0.00 | 0.00 | 86 | 1015.1 |
| 20260906123021 | 58 | 155 | 1.0 | 2.0 | 0.00 | 0.00 | 0.00 | 85 | 1014.9 |
| 20260906121531 | 58 | 83 | 0.0 | 0.0 | 0.00 | 0.00 | 0.00 | 86 | 1015.4 |
| 20260906120027 | 57 | 82 | 0.0 | 0.0 | 0.00 | 0.00 | 0.00 | 85 | 1015.3 |
| 20260906114542 | 58 | 34 | 0.0 | 0.0 | 0.00 | 0.00 | 0.00 | 85 | 1015.5 |
| 20260906113030 | 58 | 105 | 0.0 | 0.0 | 0.00 | 0.00 | 0.00 | 84 | 1015.3 |
| 20260906111525 | 58 | 105 | 0.0 | 0.0 | 0.00 | 0.00 | 0.00 | 85 | 1015.5 |
| 20260906110023 | 58 | 105 | 0.0 | 0.0 | 0.00 | 0.00 | 0.00 | 83 | 1015.5 |
| 20260906104527 | 58 | 105 | 0.0 | 2.0 | 0.00 | 0.00 | 0.00 | 83 | 1015.4 |
| 20260906103033 | 58 | 105 | 0.0 | 0.0 | 0.00 | 0.00 | 0.00 | 83 | 1015.4 |
| 20260906101531 | 58 | 105 | 0.0 | 0.0 | 0.00 | 0.00 | 0.00 | 83 | 1015.5 |
| 20260906100019 | 58 | 105 | 0.0 | 0.0 | 0.00 | 0.00 | 0.00 | 83 | 1015.3 |
| 20260906094536 | 58 | 105 | 0.0 | 3.0 | 0.00 | 0.00 | 0.00 | 1015.3 | |
| 20260906093033 | 58 | 105 | 0.0 | 4.0 | 0.00 | 0.00 | 0.00 | 84 | 1015.5 |
| 20260906091536 | 58 | 65 | 0.0 | 2.0 | 0.00 | 0.00 | 0.00 | 84 | 1015.3 |
| 20260906090018 | 59 | 65 | 2.0 | 3.0 | 0.00 | 0.00 | 0.00 | 83 | 1015.4 |
| 20260906084530 | 59 | 81 | 1.0 | 2.0 | 0.00 | 0.00 | 0.00 | 83 | 1015.2 |
| 20260906083033 | 59 | 82 | 0.0 | 0.0 | 0.00 | 0.00 | 0.00 | 82 | 1015.2 |
| 20260906081538 | 59 | 82 | 0.0 | 0.0 | 0.00 | 0.00 | 0.00 | 83 | 1015.3 |
| 20260906080014 | 59 | 82 | 0.0 | 2.0 | 0.00 | 0.00 | 0.00 | 82 | 1015.2 |
| 20260906074519 | 58 | 83 | 0.0 | 2.0 | 0.00 | 0.00 | 0.00 | 83 | 1015.4 |
| 20260906073004 | 59 | 77 | 0.0 | 2.0 | 0.00 | 0.00 | 0.00 | 82 | 1015.3 |
| 20260906071507 | 59 | 77 | 0.0 | 0.0 | 0.00 | 0.00 | 0.00 | 82 | 1015.2 |
| 20260906070012 | 59 | 77 | 0.0 | 2.0 | 0.00 | 0.00 | 0.00 | 81 | 1015.3 |
| 20260906064524 | 59 | 88 | 1.0 | 2.0 | 0.00 | 0.00 | 0.00 | 81 | 1015.3 |
| 20260906063024 | 60 | 78 | 0.0 | 0.0 | 0.00 | 0.00 | 0.00 | 80 | 1015.3 |
| 20260906061530 | 59 | 105 | 0.0 | 2.0 | 0.00 | 0.00 | 0.00 | 81 | 1015.4 |
| 20260906060041 | 59 | 96 | 0.0 | 2.0 | 0.00 | 0.00 | 0.00 | 81 | 1015.6 |
| 20260906054514 | 60 | 78 | 0.0 | 0.0 | 0.00 | 0.00 | 0.00 | 80 | 1015.5 |
| 20260906053031 | 60 | 81 | 0.0 | 0.0 | 0.00 | 0.00 | 0.00 | 79 | 1015.4 |
| 20260906051526 | 60 | 92 | 0.0 | 2.0 | 0.00 | 0.00 | 0.00 | 77 | 1015.5 |
| 20260906050039 | 61 | 76 | 2.0 | 6.0 | 0.00 | 0.00 | 0.00 | 1015.5 | |
| 20260906044512 | 61 | 74 | 0.0 | 2.0 | 0.00 | 0.00 | 0.00 | 75 | 1015.5 |
| 20260906043039 | 62 | 73 | 0.0 | 0.0 | 0.00 | 0.00 | 0.00 | 74 | 1015.7 |
| 20260906041531 | 62 | 73 | 0.0 | 2.0 | 0.00 | 0.00 | 0.00 | 75 | 1015.6 |
| 20260906040012 | 63 | 73 | 1.0 | 3.0 | 0.00 | 0.00 | 0.00 | 74 | 1015.7 |
| 20260906034540 | 64 | 73 | 0.0 | 0.0 | 0.00 | 0.00 | 0.00 | 70 | 1015.4 |
| 20260906033014 | 64 | 73 | 0.0 | 0.0 | 0.00 | 0.00 | 0.00 | 69 | 1015.4 |
| 20260906031544 | 65 | 72 | 0.0 | 0.0 | 0.00 | 0.00 | 0.00 | 67 | 1015.1 |
| 20260906030031 | 66 | 58 | 0.0 | 1.0 | 0.00 | 0.00 | 0.00 | 66 | 1015.1 |
| 20260906024506 | 67 | 58 | 0.0 | 2.0 | 0.00 | 0.00 | 0.00 | 62 | 1015.0 |
| 20260906023012 | 68 | 83 | 2.0 | 4.0 | 0.00 | 0.00 | 0.00 | 60 | 1015.0 |
| 20260906021535 | 69 | 67 | 1.0 | 3.0 | 0.00 | 0.00 | 0.00 | 58 | 1015.0 |
| 20260906020048 | 69 | 46 | 1.0 | 4.0 | 0.00 | 0.00 | 0.00 | 55 | 1015.3 |
| 20260906014533 | 70 | 350 | 1.0 | 4.0 | 0.00 | 0.00 | 0.00 | 51 | 1015.1 |
| 20260906013010 | 71 | 344 | 1.0 | 4.0 | 0.00 | 0.00 | 0.00 | 51 | 1015.2 |
| 20260906011516 | 71 | 16 | 3.0 | 5.0 | 0.00 | 0.00 | 0.00 | 48 | 1015.1 |
| 20260906010028 | 72 | 333 | 2.0 | 4.0 | 0.00 | 0.00 | 0.00 | 47 | 1015.3 |
| 20260906004527 | 72 | 318 | 3.0 | 4.0 | 0.00 | 0.00 | 0.00 | 47 | 1015.2 |
| 20260906003033 | 72 | 322 | 2.0 | 4.0 | 0.00 | 0.00 | 0.00 | 47 | 1015.3 |
| 20260906001541 | 72 | 88 | 0.0 | 3.0 | 0.00 | 0.00 | 0.00 | 47 | 1015.2 |
| 20260906000024 | 71 | 325 | 0.0 | 7.0 | 0.00 | 0.00 | 0.00 | 47 | 1015.4 |
| 20260905234534 | 71 | 340 | 5.0 | 8.0 | 0.00 | 0.00 | 0.00 | 47 | 1015.3 |
| 20260905233028 | 72 | 298 | 3.0 | 5.0 | 0.00 | 0.00 | 0.00 | 46 | 1015.4 |
| 20260905231511 | 72 | 321 | 2.0 | 6.0 | 0.00 | 0.00 | 0.00 | 45 | 1015.5 |
| 20260905230020 | 73 | 339 | 2.0 | 8.0 | 0.00 | 0.01 | 0.00 | 45 | 1015.6 |
| 20260905224526 | 73 | 303 | 5.0 | 7.0 | 0.00 | 0.03 | 0.00 | 45 | 1015.5 |
| 20260905223027 | 70 | 333 | 2.0 | 6.0 | 0.00 | 0.05 | 0.00 | 49 | 1015.8 |
| 20260905221539 | 70 | 302 | 0.0 | 7.0 | 0.00 | 0.08 | 0.00 | 48 | 1015.7 |
| 20260905220018 | 71 | 349 | 0.0 | 4.0 | 0.00 | 0.11 | 0.00 | 47 | 1015.9 |
| 20260905214523 | 69 | 240 | 0.0 | 7.0 | 0.00 | 0.12 | 0.00 | 48 | 1015.9 |
| 20260905213028 | 70 | 188 | 4.0 | 10.0 | 0.00 | 0.12 | 0.00 | 48 | 1016.0 |
| 20260905211527 | 71 | 257 | 3.0 | 6.0 | 0.00 | 0.12 | 0.00 | 48 | 1015.9 |
| 20260905210015 | 70 | 260 | 1.0 | 8.0 | 0.00 | 0.12 | 0.00 | 52 | 1016.2 |
| 20260905204542 | 69 | 1.0 | 3.0 | 0.00 | 0.12 | 0.00 | 54 | 1016.3 | |
| 20260905203031 | 71 | 299 | 2.0 | 4.0 | 0.00 | 0.12 | 0.00 | 55 | 1016.5 |
| 20260905201507 | 69 | 203 | 3.0 | 7.0 | 0.00 | 0.12 | 0.00 | 60 | 1016.3 |
| 20260905200011 | 68 | 325 | 4.0 | 6.0 | 0.00 | 0.12 | 0.00 | 61 | 1016.4 |
| 20260905194519 | 67 | 281 | 4.0 | 7.0 | 0.00 | 0.12 | 0.00 | 64 | 1016.6 |
| 20260905193025 | 67 | 273 | 2.0 | 5.0 | 0.00 | 0.12 | 0.00 | 66 | 1016.9 |
| 20260905191531 | 66 | 267 | 2.0 | 6.0 | 0.00 | 0.12 | 0.00 | 69 | 1016.9 |
| 20260905190025 | 65 | 360 | 2.0 | 6.0 | 0.00 | 0.12 | 0.00 | 72 | 1017.2 |
| 20260905184535 | 64 | 352 | 1.0 | 6.0 | 0.00 | 0.12 | 0.00 | 71 | 1017.4 |
| 20260905183021 | 63 | 321 | 3.0 | 5.0 | 0.00 | 0.12 | 0.00 | 74 | 1017.6 |
| 20260905181528 | 62 | 31 | 2.0 | 5.0 | 0.00 | 0.12 | 0.00 | 75 | 1017.6 |
| 20260905180047 | 60 | 242 | 1.0 | 4.0 | 0.00 | 0.12 | 0.00 | 79 | 1017.5 |
| 20260905174534 | 60 | 43 | 1.0 | 3.0 | 0.00 | 0.12 | 0.00 | 79 | 1017.6 |
| 20260905173020 | 59 | 76 | 3.0 | 6.0 | 0.00 | 0.12 | 0.00 | 81 | 1017.8 |
| 20260905171535 | 59 | 55 | 2.0 | 4.0 | 0.00 | 0.12 | 0.00 | 82 | 1017.7 |
| 20260905170030 | 58 | 352 | 2.0 | 5.0 | 0.00 | 0.12 | 0.00 | 84 | 1017.6 |
| 20260905164533 | 58 | 57 | 1.0 | 3.0 | 0.00 | 0.12 | 0.00 | 84 | 1017.7 |
| 20260905163018 | 58 | 71 | 1.0 | 4.0 | 0.00 | 0.12 | 0.00 | 85 | 1017.8 |
| 20260905161537 | 58 | 36 | 2.0 | 3.0 | 0.00 | 0.12 | 0.00 | 86 | 1017.9 |
| 20260905160046 | 57 | 310 | 1.0 | 3.0 | 0.00 | 0.12 | 0.00 | 85 | 1017.8 |
| 20260905154532 | 58 | 53 | 1.0 | 3.0 | 0.00 | 0.12 | 0.00 | 87 | 1017.7 |
| 20260905153014 | 57 | 90 | 1.0 | 3.0 | 0.00 | 0.12 | 0.00 | 88 | 1017.8 |
| 20260905151528 | 56 | 98 | 1.0 | 2.0 | 0.00 | 0.12 | 0.00 | 89 | 1017.8 |
| 20260905150027 | 54 | 99 | 0.0 | 2.0 | 0.00 | 0.12 | 0.00 | 91 | 1018.0 |
| 20260905144533 | 53 | 99 | 0.0 | 2.0 | 0.00 | 0.12 | 0.00 | 92 | 1017.7 |
| 20260905143035 | 53 | 99 | 0.0 | 0.0 | 0.00 | 0.12 | 0.00 | 92 | 1017.6 |
| 20260905141515 | 53 | 99 | 0.0 | 0.0 | 0.00 | 0.12 | 0.00 | 91 | 1017.6 |
| 20260905140032 | 53 | 99 | 0.0 | 0.0 | 0.00 | 0.12 | 0.00 | 92 | 1017.6 |
| 20260905134529 | 53 | 99 | 0.0 | 1.0 | 0.00 | 0.12 | 0.00 | 92 | 1017.7 |
| 20260905133031 | 53 | 99 | 1.0 | 2.0 | 0.00 | 0.13 | 0.00 | 91 | 1017.5 |